sat.trackr.live / text

‹ back to catalog

STARLINK-11670 [DTC]

NORAD 64237 · 2025-119E

PAYLOAD ACTIVE UNKNOWN

§ Identity

Operator
Country
US
Launch date
2025-06-03
Launch site
AFETR
Launch vehicle
Mass (kg)
RCS (m²)

Purposes: comms

External: N2YO · Heavens-Above · Gunter

§ Orbital elements

Epoch: 2026-05-25T00:04:19.826400Z

Period
91.67 min
Inclination
43.0006°
Eccentricity
0.0001586
Mean motion
15.70829262 rev/d
Perigee alt
355.5 km
Apogee alt
357.6 km
Semi-major
6,734.7 km
B*
1.8238e-3
RAAN
109.4063°
Arg perigee
264.8275°
Mean anomaly
95.2411°
Rev number
5,724

§ Raw data

STARLINK-11670 [DTC]1 64237U 25119E   26145.00300725  .00240358  00000+0  18238-2 0  99902 64237  43.0006 109.4063 0001586 264.8275  95.2411 15.70829262 57246

JSON: /api/v1/satellites/64237 · /tle

For live sub-satellite position, see the globe view (requires WebGL).

§ Visibility from observer

Set your observer location to see the next 7 days of passes ≥ 10°. The values pass through the URL so the page stays shareable.

No JS? Fill the form by hand. The geolocation button needs JavaScript.